This demonstration page uses our WeatherBlox Daily Observations layout. Learn more.

Left ArrowRight Arrow

Hourly Observations for September 17, 2021

Temp ( °F °C ) Dew Point ( °F °C ) Humidity (%) Winds ( mph kmh ) Pressure ( in mb ) Visibility ( mi km ) Precip ( " mm )
12:51 am 00:51 Clear 73 22.8 46 7.8 38 38 NNE 8 13 29.78 1008 10 16 N/A
1:51 am 01:51 Clear 70 21.1 46 7.8 42 42 SSE 5 7 29.79 1009 10 16 N/A
2:51 am 02:51 Clear 66 18.9 47 8.3 50 50 NNE 3 6 29.82 1010 10 16 N/A
3:51 am 03:51 Clear 67 19.4 46 7.8 47 47 N N/A 29.82 1010 10 16 N/A
4:51 am 04:51 Clear 64 17.8 47 8.3 54 54 N N/A 29.84 1011 10 16 N/A
5:51 am 05:51 Clear 63 17.2 47 8.3 56 56 W 5 7 29.87 1012 10 16 N/A
6:51 am 06:51 Sunny 66 18.9 49 9.4 54 54 N 3 6 29.91 1013 10 16 N/A
7:51 am 07:51 Sunny 74 23.3 48 8.9 40 40 N N/A 29.92 1013 10 16 N/A
8:51 am 08:51 Sunny 78 25.6 48 8.9 35 35 N 3 6 29.93 1014 10 16 N/A
9:51 am 09:51 Sunny 84 28.9 48 8.9 29 29 N N/A 29.93 1014 10 16 N/A
10:51 am 10:51 Sunny 86 30 48 8.9 27 27 VRB 3 6 29.93 1014 10 16 N/A
11:51 am 11:51 Sunny 91 32.8 51 10.6 26 26 WNW 9 15 29.90 1013 10 16 N/A
12:51 pm 12:51 Sunny 93 33.9 49 9.4 22 22 WNW 8 13 29.88 1012 10 16 N/A
1:51 pm 13:51 Sunny 95 35 48 8.9 20 20 W 10 17 29.86 1011 10 16 N/A
2:51 pm 14:51 Sunny 94 34.4 45 7.2 18 18 VRB 3 6 29.85 1011 10 16 N/A
3:51 pm 15:51 Sunny 96 35.6 44 6.7 17 17 N N/A 29.83 1010 10 16 N/A
4:51 pm 16:51 Sunny 95 35 45 7.2 18 18 W 5 7 29.83 1010 10 16 N/A
5:51 pm 17:51 Sunny 94 34.4 45 7.2 18 18 NW 3 6 29.83 1010 10 16 N/A
6:51 pm 18:51 Clear 88 31.1 47 8.3 24 24 NW 6 9 29.85 1011 10 16 N/A
7:51 pm 19:51 Clear 86 30 48 8.9 27 27 N 7 11 29.85 1011 10 16 N/A
8:51 pm 20:51 Clear 82 27.8 49 9.4 32 32 WNW 8 13 29.87 1012 10 16 N/A
9:51 pm 21:51 Clear 79 26.1 49 9.4 35 35 W 6 9 29.87 1012 10 16 N/A
10:51 pm 22:51 Clear 82 27.8 48 8.9 31 31 WNW 10 17 29.87 1012 10 16 N/A
11:51 pm 23:51 Clear 79 26.1 49 9.4 35 35 WNW 8 13 29.87 1012 10 16 N/A

Powered by AerisWeather